Zurück zum Katalog

FENGYUN 1C DEB

AktivSSO
NORAD 38799·DEBRIS·🇨🇳 China

Gestartet May 10, 1999 von Taiyuan Satellite Launch Center

Loading…

Nächste Überflüge (nächste 24 Stunden)

TLE

AlterndSource: Space-Track

Epoche: Sep 4, 2026, 12:00 UTC

1 38799U 99025EUP 26247.50051080  .00001542  00000-0  34353-3 0  9994
2 38799  98.3857 327.0904 0158192 258.2663 100.0746 14.50980737678903

Verfolge FENGYUN 1C DEB in Echtzeit mit AllMySat

Download on the App Store